This is the latest recevied weather packets stored in our database for station/object KE8AFF-13. If no packets are shown the sender has not sent any weather packets the latest 10 day(s).
| Time | Temp. | Humidity | Pressure | Rain* | Wind** | Luminosity | Snow |
|---|---|---|---|---|---|---|---|
| 1777563872 | 7.78° C | 82% | 1016.1 hPa | 0 mm | - | 365 W/m² | - |
| 1777563567 | 7.78° C | 85% | 1015.9 hPa | 0 mm | - | 299 W/m² | - |
| 1777563267 | 7.22° C | 86% | 1016.1 hPa | 0 mm | - | 479 W/m² | - |
| 1777562963 | 6.67° C | 87% | 1016.2 hPa | 0 mm | - | 196 W/m² | - |
| 1777562660 | 7.22° C | 87% | 1016 hPa | 0 mm | - | 141 W/m² | - |
| 1777562354 | 7.22° C | 89% | 1015.8 hPa | 0 mm | - | 205 W/m² | - |
| 1777562050 | 6.67° C | 89% | 1015.8 hPa | 0 mm | - | 234 W/m² | - |
| 1777561748 | 6.67° C | 88% | 1015.7 hPa | 0 mm | - | 142 W/m² | - |
| 1777561442 | 7.22° C | 88% | 1015.7 hPa | 0 mm | - | 78 W/m² | - |
| 1777561132 | 7.22° C | 88% | 1015.6 hPa | 0 mm | - | 92 W/m² | - |
| 1777560827 | 7.22° C | 87% | 1015.6 hPa | 0 mm | - | 89 W/m² | - |
| 1777560525 | 7.22° C | 88% | 1015.4 hPa | 0 mm | - | 189 W/m² | - |
| 1777560223 | 7.78° C | 89% | 1015.3 hPa | 0 mm | - | 217 W/m² | - |
| 1777559920 | 7.22° C | 89% | 1015.5 hPa | 0 mm | - | 296 W/m² | - |
| 1777559615 | 7.22° C | 89% | 1015.3 hPa | 0 mm | - | 152 W/m² | - |
| 1777559313 | 7.22° C | 91% | 1015.2 hPa | 0 mm | - | 630 W/m² | - |
| 1777559009 | 6.67° C | 90% | 1015.2 hPa | 0 mm | - | 293 W/m² | - |
| 1777558704 | 7.22° C | 89% | 1015.3 hPa | 0 mm | - | 149 W/m² | - |
| 1777558401 | 6.67° C | 88% | 1015 hPa | 0 mm | - | 131 W/m² | - |
| 1777558097 | 6.67° C | 89% | 1015.1 hPa | 0 mm | - | 153 W/m² | - |
| 1777557794 | 6.67° C | 90% | 1015.1 hPa | 0 mm | - | 171 W/m² | - |
| 1777557490 | 6.67° C | 91% | 1015 hPa | 0 mm | - | 82 W/m² | - |
| 1777557187 | 6.67° C | 91% | 1015.1 hPa | 0 mm | - | 118 W/m² | - |
| 1777556882 | 6.67° C | 92% | 1015 hPa | 0 mm | - | 199 W/m² | - |
| 1777556578 | 6.11° C | 94% | 1014.8 hPa | 0 mm | - | 269 W/m² | - |
* Rain latest hour (hover to see other rain measurements)
** Current wind speed in m/s (hover to see current wind gust speed)